Regional Weather Roundup
Issued by NWS Newport/Morehead, NC

Current Version | Previous Version | Graphics & Text | Print | Product List | Glossary Off
Versions: 1 2 3 4 5 6 7 8 9 10 11 12 13 14 15 16 17 18 19 20 21 22 23 24 25 26 27 28 29 30 31 32 33 34 35 36 37 38 39 40 41 42 43 44 45 46 47 48 49 50

000
ASUS42 KMHX 230822
RWRMHX
WEATHER ROUNDUP FOR EASTERN NORTH CAROLINA
NATIONAL WEATHER SERVICE NEWPORT/MOREHEAD CITY NC
400 AM EDT WED APR 23 2014

NOTE: "FAIR" INDICATES FEW OR NO CLOUDS BELOW 12,000 FEET
WITH NO SIGNIFICANT WEATHER AND/OR OBSTRUCTIONS TO VISIBILITY

NCZ015>017-031-032-045>047-102-103-230900-
NORTH COAST

CITY           SKY/WX    TMP DP  RH WIND       PRES   REMARKS
EDENTON        CLEAR     62  56  80 W5        29.63S
ELIZABETH CITY CLEAR     61  54  77 W9        29.62S
KITTY HAWK     SUNNY     64  55  71 W8        29.60S
MANTEO         PTCLDY    62  55  76 NW9       29.61S

$$

NCZ045>047-081-094-103-104-230900-
CENTRAL COAST

CITY           SKY/WX    TMP DP  RH WIND       PRES   REMARKS
FRISCO         CLOUDY    62  32  32 W12       29.63S
SWANQUARTER      N/A     64 N/A N/A SW6       29.62S

$$

NCZ095-097-098-100-101-230900-
SOUTHERN COAST

CITY           SKY/WX    TMP DP  RH WIND       PRES   REMARKS
BEAUFORT       MOCLDY    62  57  83 SW3       29.66F
CEDAR ISLAND     N/A     63 N/A N/A SW6       29.68S
JACKSONVILLE   CLEAR     62  61  96 W10       29.68S
NEWPORT          N/A     63  57  82 W5          N/A
PINEY ISLAND   PTSUNNY   66  57  72 W9        29.65S
WILMINGTON     PTCLDY    63  58  83 W9        29.70F


$$

NCZ011>013-027>030-043-044-078>080-089-090>093-098-230900-
COASTAL PLAIN

CITY           SKY/WX    TMP DP  RH WIND       PRES   REMARKS
AHOSKIE        CLEAR     59  54  83 CALM      29.65R
CLINTON        CLEAR     59  59  99 SW5       29.70S
ELIZABETHTOWN  CLEAR     61  60  95 W5        29.71S
GOLDSBORO      CLEAR     58  57  96 W7        29.66S
GREENVILLE     CLEAR     63  55  77 W8        29.69R
HAVELOCK       PTCLDY    64  55  72 W13       29.67F
KENANSVILLE    CLEAR     59  56  90 W7        29.70R
KINSTON        CLEAR     61  55  82 SW5       29.67S
NEW BERN       CLEAR     64  55  72 W6        29.67S
RICHLANDS      CLEAR     59  59 100 SW6       29.69S
ROANOKE RAPIDS NOT AVBL
ROCKY MOUNT    CLEAR     61  55  81 W5        29.66S
WASHINGTON     CLEAR     61  56  83 W6        29.65S
WHITEVILLE     CLEAR     62  59  91 CALM      29.72S

$$

AMZ130-135-150-152-154-156-158-170-250-252-270-ANZ085-086-088-633-658-670-230900-
MARINE OBSERVATIONS

STATION/POSITION TIME  TEMP    WIND        PRES    WAVE   SWELL
                       AIR SEA DIR/SP/G            HT/PER HT/PER
                 (UTC) (F)     (DEG/KT/KT) (MB)    (FT/S) (FT/S)
CHESAPEAKE LIGHT 0800   58     340/ 26/ 27 1002.8
BUOY 44014       0800   53 49  260/  8/ 10 1001.4    5/ 8   5/ 8
DUCK             0800   62 48  270/ 10/ 12 1001.6
2E DUCK          0800      49                N/A     3/ 8
OREGON INLET     0800   62 60  240/  7/  9 1002.6
BUOY 44095       0800      51                N/A     4/ 9   2/11
HATTERAS CG      0800   64 58  250/ 10/ 13 1003.5
DIAMOND BUOY     0800   70 76  280/ 19/ 21 1002.9
CAPE LOOKOUT     0800   63     250/ 11/ 14 1004.4
BEAUFORT LAB     0800   62 61  260/  4/  7 1003.8
30 SE NEW RIVER  0800   67 69  260/ 17/ 19 1005.3    4/ 6   2/ 9
5 SE WRIGHTSVILL 0800   62 60  260/ 10/ 10 1005.5
FRYING PAN BUOY  0800   67 67  270/ 16/ 19 1006.0    4/ 6   2/ 9
BUOY 41001       NOT AVBL
BUOY 41002       NOT AVBL
BUOY 41004       0800   67 70  270/ 16/ 17 1007.4    3/ 8   2/ 8

$$



USA.gov is the U.S. government's official web portal to all federal, state and local government web resources and services.